owner,sensor,date,latitude,longitude,sea_surface_height_above_sea_level,qcFlag 
TCOON,ioos:station:TCOON:031:1,2017-05-01T00:18:00Z,28.4073,-96.7122,0.798,1111122 
TCOON,ioos:station:TCOON:031:1,2017-05-01T01:18:00Z,28.4073,-96.7122,0.796,1111122 
TCOON,ioos:station:TCOON:031:1,2017-05-01T02:18:00Z,28.4073,-96.7122,0.811,1111122 
TCOON,ioos:station:TCOON:031:1,2017-05-01T03:18:00Z,28.4073,-96.7122,0.799,1111122 
TCOON,ioos:station:TCOON:031:1,2017-05-01T04:24:00Z,28.4073,-96.7122,0.801,1111122 
TCOON,ioos:station:TCOON:031:1,2017-05-01T05:18:00Z,28.4073,-96.7122,0.793,1111122 
TCOON,ioos:station:TCOON:031:1,2017-05-01T06:18:00Z,28.4073,-96.7122,0.797,1111122 
TCOON,ioos:station:TCOON:031:1,2017-05-01T07:18:00Z,28.4073,-96.7122,0.781,1111122 
TCOON,ioos:station:TCOON:031:1,2017-05-01T08:24:00Z,28.4073,-96.7122,0.77,1111122 
TCOON,ioos:station:TCOON:031:1,2017-05-01T09:24:00Z,28.4073,-96.7122,0.75,1111122 
TCOON,ioos:station:TCOON:031:1,2017-05-01T10:24:00Z,28.4073,-96.7122,0.747,1111122 
TCOON,ioos:station:TCOON:031:1,2017-05-01T11:24:00Z,28.4073,-96.7122,0.742,1111122 
TCOON,ioos:station:TCOON:031:1,2017-05-01T12:24:00Z,28.4073,-96.7122,0.755,1111122 
TCOON,ioos:station:TCOON:031:1,2017-05-01T13:18:00Z,28.4073,-96.7122,0.747,1111122 
TCOON,ioos:station:TCOON:031:1,2017-05-01T14:18:00Z,28.4073,-96.7122,0.749,1111122 
TCOON,ioos:station:TCOON:031:1,2017-05-01T15:18:00Z,28.4073,-96.7122,0.735,1111122 
TCOON,ioos:station:TCOON:031:1,2017-05-01T16:18:00Z,28.4073,-96.7122,0.728,1111122 
TCOON,ioos:station:TCOON:031:1,2017-05-01T17:18:00Z,28.4073,-96.7122,0.707,1111122 
TCOON,ioos:station:TCOON:031:1,2017-05-01T18:18:00Z,28.4073,-96.7122,0.691,1111122 
TCOON,ioos:station:TCOON:031:1,2017-05-01T19:18:00Z,28.4073,-96.7122,0.687,1111122 
TCOON,ioos:station:TCOON:031:1,2017-05-01T20:18:00Z,28.4073,-96.7122,0.703,1111122 
TCOON,ioos:station:TCOON:031:1,2017-05-01T21:18:00Z,28.4073,-96.7122,0.707,1111122 
TCOON,ioos:station:TCOON:031:1,2017-05-01T22:18:00Z,28.4073,-96.7122,0.717,1111122 
TCOON,ioos:station:TCOON:031:1,2017-05-01T23:18:00Z,28.4073,-96.7122,0.701,1111122 
TCOON,ioos:station:TCOON:031:1,2017-05-02T00:18:00Z,28.4073,-96.7122,0.697,1111122 
TCOON,ioos:station:TCOON:031:1,2017-05-02T01:18:00Z,28.4073,-96.7122,0.701,1111122 
TCOON,ioos:station:TCOON:031:1,2017-05-02T02:18:00Z,28.4073,-96.7122,0.698,1111122 
TCOON,ioos:station:TCOON:031:1,2017-05-02T03:18:00Z,28.4073,-96.7122,0.725,1111122 
TCOON,ioos:station:TCOON:031:1,2017-05-02T04:18:00Z,28.4073,-96.7122,0.731,1111122 
TCOON,ioos:station:TCOON:031:1,2017-05-02T05:18:00Z,28.4073,-96.7122,0.717,1111122 
TCOON,ioos:station:TCOON:031:1,2017-05-02T06:18:00Z,28.4073,-96.7122,0.705,1111122 
TCOON,ioos:station:TCOON:031:1,2017-05-02T07:18:00Z,28.4073,-96.7122,0.695,1111122 
TCOON,ioos:station:TCOON:031:1,2017-05-02T08:18:00Z,28.4073,-96.7122,0.673,1111122 
TCOON,ioos:station:TCOON:031:1,2017-05-02T09:18:00Z,28.4073,-96.7122,0.659,1111122 
TCOON,ioos:station:TCOON:031:1,2017-05-02T10:18:00Z,28.4073,-96.7122,0.638,1111122 
TCOON,ioos:station:TCOON:031:1,2017-05-02T11:18:00Z,28.4073,-96.7122,0.616,1111122 
TCOON,ioos:station:TCOON:031:1,2017-05-02T12:18:00Z,28.4073,-96.7122,0.609,1111122 
TCOON,ioos:station:TCOON:031:1,2017-05-02T13:18:00Z,28.4073,-96.7122,0.6,1111122 
TCOON,ioos:station:TCOON:031:1,2017-05-02T14:18:00Z,28.4073,-96.7122,0.591,1111122 
TCOON,ioos:station:TCOON:031:1,2017-05-02T15:18:00Z,28.4073,-96.7122,0.581,1111122 
TCOON,ioos:station:TCOON:031:1,2017-05-02T16:18:00Z,28.4073,-96.7122,0.59,1111122 
TCOON,ioos:station:TCOON:031:1,2017-05-02T17:18:00Z,28.4073,-96.7122,0.607,1111122 
TCOON,ioos:station:TCOON:031:1,2017-05-02T18:18:00Z,28.4073,-96.7122,0.622,1111122 
TCOON,ioos:station:TCOON:031:1,2017-05-02T19:18:00Z,28.4073,-96.7122,0.635,1111122 
TCOON,ioos:station:TCOON:031:1,2017-05-02T20:18:00Z,28.4073,-96.7122,0.639,1111122 
TCOON,ioos:station:TCOON:031:1,2017-05-02T21:18:00Z,28.4073,-96.7122,0.643,1111122 
TCOON,ioos:station:TCOON:031:1,2017-05-02T22:18:00Z,28.4073,-96.7122,0.654,1111122 
TCOON,ioos:station:TCOON:031:1,2017-05-02T23:18:00Z,28.4073,-96.7122,0.659,1111122 
TCOON,ioos:station:TCOON:031:1,2017-05-03T00:18:00Z,28.4073,-96.7122,0.665,1111122 
TCOON,ioos:station:TCOON:031:1,2017-05-03T01:18:00Z,28.4073,-96.7122,0.678,1111122 
TCOON,ioos:station:TCOON:031:1,2017-05-03T02:18:00Z,28.4073,-96.7122,0.702,1111122 
TCOON,ioos:station:TCOON:031:1,2017-05-03T03:18:00Z,28.4073,-96.7122,0.716,1111122 
TCOON,ioos:station:TCOON:031:1,2017-05-03T04:18:00Z,28.4073,-96.7122,0.756,1111122 
TCOON,ioos:station:TCOON:031:1,2017-05-03T05:18:00Z,28.4073,-96.7122,0.762,1111122 
TCOON,ioos:station:TCOON:031:1,2017-05-03T06:18:00Z,28.4073,-96.7122,0.74,1111122 
TCOON,ioos:station:TCOON:031:1,2017-05-03T07:18:00Z,28.4073,-96.7122,0.731,1111122 
TCOON,ioos:station:TCOON:031:1,2017-05-03T08:18:00Z,28.4073,-96.7122,0.748,1111122 
TCOON,ioos:station:TCOON:031:1,2017-05-03T09:18:00Z,28.4073,-96.7122,0.755,1111122 
TCOON,ioos:station:TCOON:031:1,2017-05-03T10:18:00Z,28.4073,-96.7122,0.771,1111122 
TCOON,ioos:station:TCOON:031:1,2017-05-03T11:18:00Z,28.4073,-96.7122,0.751,1111122 
TCOON,ioos:station:TCOON:031:1,2017-05-03T12:18:00Z,28.4073,-96.7122,0.744,1111122 
TCOON,ioos:station:TCOON:031:1,2017-05-03T13:18:00Z,28.4073,-96.7122,0.723,1111122 
TCOON,ioos:station:TCOON:031:1,2017-05-03T14:18:00Z,28.4073,-96.7122,0.717,1111122 
TCOON,ioos:station:TCOON:031:1,2017-05-03T15:18:00Z,28.4073,-96.7122,0.719,1111122 
TCOON,ioos:station:TCOON:031:1,2017-05-03T16:18:00Z,28.4073,-96.7122,0.737,1111122 
TCOON,ioos:station:TCOON:031:1,2017-05-03T17:18:00Z,28.4073,-96.7122,0.753,1111122 
TCOON,ioos:station:TCOON:031:1,2017-05-03T18:18:00Z,28.4073,-96.7122,0.758,1111122 
TCOON,ioos:station:TCOON:031:1,2017-05-03T19:18:00Z,28.4073,-96.7122,0.757,1111122 
TCOON,ioos:station:TCOON:031:1,2017-05-03T20:18:00Z,28.4073,-96.7122,0.76,1111122 
TCOON,ioos:station:TCOON:031:1,2017-05-03T21:18:00Z,28.4073,-96.7122,0.754,1111122 
TCOON,ioos:station:TCOON:031:1,2017-05-04T01:18:00Z,28.4073,-96.7122,0.794,1111122 
TCOON,ioos:station:TCOON:031:1,2017-05-04T02:18:00Z,28.4073,-96.7122,0.782,1111122 
TCOON,ioos:station:TCOON:031:1,2017-05-04T03:18:00Z,28.4073,-96.7122,0.789,1111122 
TCOON,ioos:station:TCOON:031:1,2017-05-04T04:18:00Z,28.4073,-96.7122,0.6,1111122 
TCOON,ioos:station:TCOON:031:1,2017-05-04T05:18:00Z,28.4073,-96.7122,0.628,1111122 
TCOON,ioos:station:TCOON:031:1,2017-05-04T06:18:00Z,28.4073,-96.7122,0.609,1111122 
TCOON,ioos:station:TCOON:031:1,2017-05-04T07:18:00Z,28.4073,-96.7122,0.677,1111122 
TCOON,ioos:station:TCOON:031:1,2017-05-04T08:18:00Z,28.4073,-96.7122,0.671,1111122 
TCOON,ioos:station:TCOON:031:1,2017-05-04T09:18:00Z,28.4073,-96.7122,0.685,1111122 
TCOON,ioos:station:TCOON:031:1,2017-05-04T10:18:00Z,28.4073,-96.7122,0.688,1111122 
TCOON,ioos:station:TCOON:031:1,2017-05-04T11:18:00Z,28.4073,-96.7122,0.699,1111122 
TCOON,ioos:station:TCOON:031:1,2017-05-04T12:18:00Z,28.4073,-96.7122,0.728,1111122 
TCOON,ioos:station:TCOON:031:1,2017-05-04T13:18:00Z,28.4073,-96.7122,0.705,1111122 
TCOON,ioos:station:TCOON:031:1,2017-05-04T14:18:00Z,28.4073,-96.7122,0.68,1111122 
TCOON,ioos:station:TCOON:031:1,2017-05-04T15:18:00Z,28.4073,-96.7122,0.678,1111122 
TCOON,ioos:station:TCOON:031:1,2017-05-04T16:18:00Z,28.4073,-96.7122,0.658,1111122 
TCOON,ioos:station:TCOON:031:1,2017-05-04T17:18:00Z,28.4073,-96.7122,0.628,1111122 
TCOON,ioos:station:TCOON:031:1,2017-05-04T18:18:00Z,28.4073,-96.7122,0.628,1111122 
TCOON,ioos:station:TCOON:031:1,2017-05-04T19:18:00Z,28.4073,-96.7122,0.618,1111122 
TCOON,ioos:station:TCOON:031:1,2017-05-04T20:18:00Z,28.4073,-96.7122,0.548,1111122 
TCOON,ioos:station:TCOON:031:1,2017-05-04T21:18:00Z,28.4073,-96.7122,0.533,1111122 
TCOON,ioos:station:TCOON:031:1,2017-05-04T22:18:00Z,28.4073,-96.7122,0.551,1111122 
TCOON,ioos:station:TCOON:031:1,2017-05-04T23:18:00Z,28.4073,-96.7122,0.567,1111122 
TCOON,ioos:station:TCOON:031:1,2017-05-05T00:18:00Z,28.4073,-96.7122,0.587,1111122 
TCOON,ioos:station:TCOON:031:1,2017-05-05T01:18:00Z,28.4073,-96.7122,0.618,1111122 
TCOON,ioos:station:TCOON:031:1,2017-05-05T02:18:00Z,28.4073,-96.7122,0.638,1111122 
TCOON,ioos:station:TCOON:031:1,2017-05-05T03:18:00Z,28.4073,-96.7122,0.63,1111122 
TCOON,ioos:station:TCOON:031:1,2017-05-05T04:18:00Z,28.4073,-96.7122,0.619,1111122 
TCOON,ioos:station:TCOON:031:1,2017-05-05T05:18:00Z,28.4073,-96.7122,0.612,1111122 
TCOON,ioos:station:TCOON:031:1,2017-05-05T06:18:00Z,28.4073,-96.7122,0.61,1111122 
TCOON,ioos:station:TCOON:031:1,2017-05-05T07:18:00Z,28.4073,-96.7122,0.595,1111122 
TCOON,ioos:station:TCOON:031:1,2017-05-05T08:12:00Z,28.4073,-96.7122,0.585,1111122 
TCOON,ioos:station:TCOON:031:1,2017-05-05T09:18:00Z,28.4073,-96.7122,0.56,1111122 
TCOON,ioos:station:TCOON:031:1,2017-05-05T10:18:00Z,28.4073,-96.7122,0.538,1111122 
TCOON,ioos:station:TCOON:031:1,2017-05-05T11:18:00Z,28.4073,-96.7122,0.529,1111122 
TCOON,ioos:station:TCOON:031:1,2017-05-05T12:18:00Z,28.4073,-96.7122,0.52,1111122 
TCOON,ioos:station:TCOON:031:1,2017-05-05T13:18:00Z,28.4073,-96.7122,0.529,1111122 
TCOON,ioos:station:TCOON:031:1,2017-05-05T14:18:00Z,28.4073,-96.7122,0.517,1111122 
TCOON,ioos:station:TCOON:031:1,2017-05-05T16:24:00Z,28.4073,-96.7122,0.489,1111122 
TCOON,ioos:station:TCOON:031:1,2017-05-05T17:18:00Z,28.4073,-96.7122,0.481,1111122 
TCOON,ioos:station:TCOON:031:1,2017-05-05T18:18:00Z,28.4073,-96.7122,0.461,1111122 
TCOON,ioos:station:TCOON:031:1,2017-05-05T19:18:00Z,28.4073,-96.7122,0.473,1111122 
TCOON,ioos:station:TCOON:031:1,2017-05-05T20:36:00Z,28.4073,-96.7122,0.459,1111122 
TCOON,ioos:station:TCOON:031:1,2017-05-05T21:30:00Z,28.4073,-96.7122,0.468,1111122 
TCOON,ioos:station:TCOON:031:1,2017-05-05T22:30:00Z,28.4073,-96.7122,0.461,1111122 
TCOON,ioos:station:TCOON:031:1,2017-05-05T23:30:00Z,28.4073,-96.7122,0.463,1111122 
TCOON,ioos:station:TCOON:031:1,2017-05-06T00:30:00Z,28.4073,-96.7122,0.45,1111122 
TCOON,ioos:station:TCOON:031:1,2017-05-06T02:00:00Z,28.4073,-96.7122,0.451,1111122 
TCOON,ioos:station:TCOON:031:1,2017-05-06T02:24:00Z,28.4073,-96.7122,0.461,1111122 
TCOON,ioos:station:TCOON:031:1,2017-05-06T03:30:00Z,28.4073,-96.7122,0.459,1111122 
TCOON,ioos:station:TCOON:031:1,2017-05-06T04:42:00Z,28.4073,-96.7122,0.472,1111122 
TCOON,ioos:station:TCOON:031:1,2017-05-06T06:00:00Z,28.4073,-96.7122,0.449,1111122 
TCOON,ioos:station:TCOON:031:1,2017-05-06T06:30:00Z,28.4073,-96.7122,0.445,1111122 
TCOON,ioos:station:TCOON:031:1,2017-05-06T07:18:00Z,28.4073,-96.7122,0.439,1111122 
TCOON,ioos:station:TCOON:031:1,2017-05-06T08:18:00Z,28.4073,-96.7122,0.434,1111122 
TCOON,ioos:station:TCOON:031:1,2017-05-06T09:24:00Z,28.4073,-96.7122,0.435,1111122 
TCOON,ioos:station:TCOON:031:1,2017-05-06T10:30:00Z,28.4073,-96.7122,0.424,1111122 
TCOON,ioos:station:TCOON:031:1,2017-05-06T11:24:00Z,28.4073,-96.7122,0.424,1111122 
TCOON,ioos:station:TCOON:031:1,2017-05-06T12:30:00Z,28.4073,-96.7122,0.394,1111122 
TCOON,ioos:station:TCOON:031:1,2017-05-06T13:24:00Z,28.4073,-96.7122,0.399,1111122 
TCOON,ioos:station:TCOON:031:1,2017-05-06T14:24:00Z,28.4073,-96.7122,0.406,1111122 
TCOON,ioos:station:TCOON:031:1,2017-05-06T15:24:00Z,28.4073,-96.7122,0.406,1111122 
TCOON,ioos:station:TCOON:031:1,2017-05-06T16:24:00Z,28.4073,-96.7122,0.405,1111122 
TCOON,ioos:station:TCOON:031:1,2017-05-06T17:24:00Z,28.4073,-96.7122,0.406,1111122 
TCOON,ioos:station:TCOON:031:1,2017-05-06T18:24:00Z,28.4073,-96.7122,0.416,1111122 
TCOON,ioos:station:TCOON:031:1,2017-05-06T19:30:00Z,28.4073,-96.7122,0.427,1111122 
TCOON,ioos:station:TCOON:031:1,2017-05-06T20:30:00Z,28.4073,-96.7122,0.439,1111122 
TCOON,ioos:station:TCOON:031:1,2017-05-06T21:24:00Z,28.4073,-96.7122,0.439,1111122 
TCOON,ioos:station:TCOON:031:1,2017-05-06T22:24:00Z,28.4073,-96.7122,0.433,1111122 
TCOON,ioos:station:TCOON:031:1,2017-05-06T23:24:00Z,28.4073,-96.7122,0.438,1111122 
TCOON,ioos:station:TCOON:031:1,2017-05-07T00:24:00Z,28.4073,-96.7122,0.451,1111122 
TCOON,ioos:station:TCOON:031:1,2017-05-07T01:24:00Z,28.4073,-96.7122,0.452,1111122 
TCOON,ioos:station:TCOON:031:1,2017-05-07T02:24:00Z,28.4073,-96.7122,0.453,1111122 
TCOON,ioos:station:TCOON:031:1,2017-05-07T03:24:00Z,28.4073,-96.7122,0.442,1111122 
TCOON,ioos:station:TCOON:031:1,2017-05-07T04:24:00Z,28.4073,-96.7122,0.447,1111122 
TCOON,ioos:station:TCOON:031:1,2017-05-07T05:36:00Z,28.4073,-96.7122,0.454,1111122 
TCOON,ioos:station:TCOON:031:1,2017-05-07T06:36:00Z,28.4073,-96.7122,0.454,1111122 
TCOON,ioos:station:TCOON:031:1,2017-05-07T07:30:00Z,28.4073,-96.7122,0.454,1111122 
TCOON,ioos:station:TCOON:031:1,2017-05-07T08:24:00Z,28.4073,-96.7122,0.457,1111122 
TCOON,ioos:station:TCOON:031:1,2017-05-07T09:36:00Z,28.4073,-96.7122,0.453,1111122 
TCOON,ioos:station:TCOON:031:1,2017-05-07T10:24:00Z,28.4073,-96.7122,0.45,1111122 
TCOON,ioos:station:TCOON:031:1,2017-05-07T11:24:00Z,28.4073,-96.7122,0.446,1111122 
TCOON,ioos:station:TCOON:031:1,2017-05-07T12:24:00Z,28.4073,-96.7122,0.438,1111122 
TCOON,ioos:station:TCOON:031:1,2017-05-07T13:24:00Z,28.4073,-96.7122,0.453,1111122 
TCOON,ioos:station:TCOON:031:1,2017-05-07T14:24:00Z,28.4073,-96.7122,0.457,1111122 
TCOON,ioos:station:TCOON:031:1,2017-05-07T15:24:00Z,28.4073,-96.7122,0.462,1111122 
TCOON,ioos:station:TCOON:031:1,2017-05-07T16:36:00Z,28.4073,-96.7122,0.463,1111122 
TCOON,ioos:station:TCOON:031:1,2017-05-07T17:30:00Z,28.4073,-96.7122,0.474,1111122 
TCOON,ioos:station:TCOON:031:1,2017-05-07T18:24:00Z,28.4073,-96.7122,0.486,1111122 
TCOON,ioos:station:TCOON:031:1,2017-05-07T19:24:00Z,28.4073,-96.7122,0.494,1111122 
TCOON,ioos:station:TCOON:031:1,2017-05-07T20:30:00Z,28.4073,-96.7122,0.486,1111122 
TCOON,ioos:station:TCOON:031:1,2017-05-07T21:24:00Z,28.4073,-96.7122,0.485,1111122 
TCOON,ioos:station:TCOON:031:1,2017-05-07T22:24:00Z,28.4073,-96.7122,0.484,1111122 
TCOON,ioos:station:TCOON:031:1,2017-05-07T23:24:00Z,28.4073,-96.7122,0.492,1111122 
TCOON,ioos:station:TCOON:031:1,2017-05-08T00:24:00Z,28.4073,-96.7122,0.489,1111122 
TCOON,ioos:station:TCOON:031:1,2017-05-08T01:24:00Z,28.4073,-96.7122,0.492,1111122 
TCOON,ioos:station:TCOON:031:1,2017-05-08T02:24:00Z,28.4073,-96.7122,0.488,1111122 
TCOON,ioos:station:TCOON:031:1,2017-05-08T03:42:00Z,28.4073,-96.7122,0.48,1111122 
TCOON,ioos:station:TCOON:031:1,2017-05-08T04:30:00Z,28.4073,-96.7122,0.47,1111122 
TCOON,ioos:station:TCOON:031:1,2017-05-08T05:30:00Z,28.4073,-96.7122,0.492,1111122 
TCOON,ioos:station:TCOON:031:1,2017-05-08T06:24:00Z,28.4073,-96.7122,0.502,1111122 
TCOON,ioos:station:TCOON:031:1,2017-05-08T07:24:00Z,28.4073,-96.7122,0.482,1111122 
TCOON,ioos:station:TCOON:031:1,2017-05-08T08:24:00Z,28.4073,-96.7122,0.476,1111122 
TCOON,ioos:station:TCOON:031:1,2017-05-08T09:24:00Z,28.4073,-96.7122,0.462,1111122 
TCOON,ioos:station:TCOON:031:1,2017-05-08T10:24:00Z,28.4073,-96.7122,0.475,1111122 
TCOON,ioos:station:TCOON:031:1,2017-05-08T11:24:00Z,28.4073,-96.7122,0.466,1111122 
TCOON,ioos:station:TCOON:031:1,2017-05-08T12:24:00Z,28.4073,-96.7122,0.465,1111122 
TCOON,ioos:station:TCOON:031:1,2017-05-08T13:24:00Z,28.4073,-96.7122,0.471,1111122 
TCOON,ioos:station:TCOON:031:1,2017-05-08T14:30:00Z,28.4073,-96.7122,0.475,1111122 
TCOON,ioos:station:TCOON:031:1,2017-05-08T15:24:00Z,28.4073,-96.7122,0.474,1111122 
TCOON,ioos:station:TCOON:031:1,2017-05-08T16:24:00Z,28.4073,-96.7122,0.518,1111122 
TCOON,ioos:station:TCOON:031:1,2017-05-08T17:30:00Z,28.4073,-96.7122,0.508,1111122 
TCOON,ioos:station:TCOON:031:1,2017-05-08T18:24:00Z,28.4073,-96.7122,0.514,1111122 
TCOON,ioos:station:TCOON:031:1,2017-05-08T19:24:00Z,28.4073,-96.7122,0.508,1111122 
TCOON,ioos:station:TCOON:031:1,2017-05-08T20:24:00Z,28.4073,-96.7122,0.517,1111122 
TCOON,ioos:station:TCOON:031:1,2017-05-08T21:24:00Z,28.4073,-96.7122,0.543,1111122 
TCOON,ioos:station:TCOON:031:1,2017-05-08T22:24:00Z,28.4073,-96.7122,0.532,1111122 
TCOON,ioos:station:TCOON:031:1,2017-05-08T23:24:00Z,28.4073,-96.7122,0.548,1111122 
TCOON,ioos:station:TCOON:031:1,2017-05-09T00:42:00Z,28.4073,-96.7122,0.562,1111122 
TCOON,ioos:station:TCOON:031:1,2017-05-09T01:30:00Z,28.4073,-96.7122,0.552,1111122 
TCOON,ioos:station:TCOON:031:1,2017-05-09T02:24:00Z,28.4073,-96.7122,0.545,1111122 
TCOON,ioos:station:TCOON:031:1,2017-05-09T03:24:00Z,28.4073,-96.7122,0.526,1111122 
TCOON,ioos:station:TCOON:031:1,2017-05-09T04:24:00Z,28.4073,-96.7122,0.531,1111122 
TCOON,ioos:station:TCOON:031:1,2017-05-09T05:24:00Z,28.4073,-96.7122,0.518,1111122 
TCOON,ioos:station:TCOON:031:1,2017-05-09T06:24:00Z,28.4073,-96.7122,0.516,1111122 
TCOON,ioos:station:TCOON:031:1,2017-05-09T07:24:00Z,28.4073,-96.7122,0.514,1111122 
TCOON,ioos:station:TCOON:031:1,2017-05-09T08:24:00Z,28.4073,-96.7122,0.513,1111122 
TCOON,ioos:station:TCOON:031:1,2017-05-09T09:24:00Z,28.4073,-96.7122,0.506,1111122 
TCOON,ioos:station:TCOON:031:1,2017-05-09T10:24:00Z,28.4073,-96.7122,0.512,1111122 
TCOON,ioos:station:TCOON:031:1,2017-05-09T11:24:00Z,28.4073,-96.7122,0.516,1111122 
TCOON,ioos:station:TCOON:031:1,2017-05-09T12:36:00Z,28.4073,-96.7122,0.522,1111122 
TCOON,ioos:station:TCOON:031:1,2017-05-09T13:42:00Z,28.4073,-96.7122,0.53,1111122 
TCOON,ioos:station:TCOON:031:1,2017-05-09T14:24:00Z,28.4073,-96.7122,0.538,1111122 
TCOON,ioos:station:TCOON:031:1,2017-05-09T15:24:00Z,28.4073,-96.7122,0.585,1111122 
TCOON,ioos:station:TCOON:031:1,2017-05-09T16:18:00Z,28.4073,-96.7122,0.582,1111122 
TCOON,ioos:station:TCOON:031:1,2017-05-09T17:18:00Z,28.4073,-96.7122,0.599,1111122 
TCOON,ioos:station:TCOON:031:1,2017-05-09T18:18:00Z,28.4073,-96.7122,0.601,1111122 
TCOON,ioos:station:TCOON:031:1,2017-05-09T19:18:00Z,28.4073,-96.7122,0.612,1111122 
TCOON,ioos:station:TCOON:031:1,2017-05-09T20:18:00Z,28.4073,-96.7122,0.618,1111122 
TCOON,ioos:station:TCOON:031:1,2017-05-09T21:18:00Z,28.4073,-96.7122,0.634,1111122 
TCOON,ioos:station:TCOON:031:1,2017-05-09T22:18:00Z,28.4073,-96.7122,0.653,1111122 
TCOON,ioos:station:TCOON:031:1,2017-05-09T23:18:00Z,28.4073,-96.7122,0.658,1111122 
TCOON,ioos:station:TCOON:031:1,2017-05-10T00:18:00Z,28.4073,-96.7122,0.658,1111122 
TCOON,ioos:station:TCOON:031:1,2017-05-10T01:18:00Z,28.4073,-96.7122,0.654,1111122 
TCOON,ioos:station:TCOON:031:1,2017-05-10T02:18:00Z,28.4073,-96.7122,0.646,1111122 
TCOON,ioos:station:TCOON:031:1,2017-05-10T03:18:00Z,28.4073,-96.7122,0.636,1111122 
TCOON,ioos:station:TCOON:031:1,2017-05-10T04:18:00Z,28.4073,-96.7122,0.622,1111122 
TCOON,ioos:station:TCOON:031:1,2017-05-10T05:18:00Z,28.4073,-96.7122,0.644,1111122 
TCOON,ioos:station:TCOON:031:1,2017-05-10T06:18:00Z,28.4073,-96.7122,0.633,1111122 
TCOON,ioos:station:TCOON:031:1,2017-05-10T07:18:00Z,28.4073,-96.7122,0.619,1111122 
TCOON,ioos:station:TCOON:031:1,2017-05-10T08:18:00Z,28.4073,-96.7122,0.594,1111122 
TCOON,ioos:station:TCOON:031:1,2017-05-10T09:18:00Z,28.4073,-96.7122,0.606,1111122 
TCOON,ioos:station:TCOON:031:1,2017-05-10T10:18:00Z,28.4073,-96.7122,0.6,1111122 
TCOON,ioos:station:TCOON:031:1,2017-05-10T11:18:00Z,28.4073,-96.7122,0.61,1111122 
TCOON,ioos:station:TCOON:031:1,2017-05-10T12:18:00Z,28.4073,-96.7122,0.575,1111122 
TCOON,ioos:station:TCOON:031:1,2017-05-10T13:18:00Z,28.4073,-96.7122,0.588,1111122 
TCOON,ioos:station:TCOON:031:1,2017-05-10T14:18:00Z,28.4073,-96.7122,0.612,1111122 
TCOON,ioos:station:TCOON:031:1,2017-05-10T15:18:00Z,28.4073,-96.7122,0.622,1111122 
TCOON,ioos:station:TCOON:031:1,2017-05-10T16:18:00Z,28.4073,-96.7122,0.623,1111122 
TCOON,ioos:station:TCOON:031:1,2017-05-10T17:18:00Z,28.4073,-96.7122,0.635,1111122 
TCOON,ioos:station:TCOON:031:1,2017-05-10T18:42:00Z,28.4073,-96.7122,0.678,1111122 
TCOON,ioos:station:TCOON:031:1,2017-05-10T19:18:00Z,28.4073,-96.7122,0.68,1111122 
TCOON,ioos:station:TCOON:031:1,2017-05-10T20:18:00Z,28.4073,-96.7122,0.68,1111122 
TCOON,ioos:station:TCOON:031:1,2017-05-10T21:18:00Z,28.4073,-96.7122,0.674,1111122 
TCOON,ioos:station:TCOON:031:1,2017-05-10T22:18:00Z,28.4073,-96.7122,0.672,1111122 
TCOON,ioos:station:TCOON:031:1,2017-05-10T23:18:00Z,28.4073,-96.7122,0.671,1111122 
TCOON,ioos:station:TCOON:031:1,2017-05-11T00:18:00Z,28.4073,-96.7122,0.688,1111122 
TCOON,ioos:station:TCOON:031:1,2017-05-11T01:18:00Z,28.4073,-96.7122,0.646,1111122 
TCOON,ioos:station:TCOON:031:1,2017-05-11T02:18:00Z,28.4073,-96.7122,0.651,1111122 
TCOON,ioos:station:TCOON:031:1,2017-05-11T03:18:00Z,28.4073,-96.7122,0.647,1111122 
TCOON,ioos:station:TCOON:031:1,2017-05-11T04:18:00Z,28.4073,-96.7122,0.668,1111122 
TCOON,ioos:station:TCOON:031:1,2017-05-11T05:18:00Z,28.4073,-96.7122,0.643,1111122 
TCOON,ioos:station:TCOON:031:1,2017-05-11T06:18:00Z,28.4073,-96.7122,0.626,1111122 
TCOON,ioos:station:TCOON:031:1,2017-05-11T07:18:00Z,28.4073,-96.7122,0.618,1111122 
TCOON,ioos:station:TCOON:031:1,2017-05-11T08:18:00Z,28.4073,-96.7122,0.609,1111122 
TCOON,ioos:station:TCOON:031:1,2017-05-11T09:18:00Z,28.4073,-96.7122,0.622,1111122 
TCOON,ioos:station:TCOON:031:1,2017-05-11T10:18:00Z,28.4073,-96.7122,0.614,1111122 
TCOON,ioos:station:TCOON:031:1,2017-05-11T11:18:00Z,28.4073,-96.7122,0.607,1111122 
TCOON,ioos:station:TCOON:031:1,2017-05-11T12:18:00Z,28.4073,-96.7122,0.616,1111122 
TCOON,ioos:station:TCOON:031:1,2017-05-11T13:18:00Z,28.4073,-96.7122,0.631,1111122 
TCOON,ioos:station:TCOON:031:1,2017-05-11T14:18:00Z,28.4073,-96.7122,0.633,1111122 
TCOON,ioos:station:TCOON:031:1,2017-05-11T15:18:00Z,28.4073,-96.7122,0.607,1111122 
TCOON,ioos:station:TCOON:031:1,2017-05-11T16:18:00Z,28.4073,-96.7122,0.609,1111122 
TCOON,ioos:station:TCOON:031:1,2017-05-11T17:18:00Z,28.4073,-96.7122,0.636,1111122 
TCOON,ioos:station:TCOON:031:1,2017-05-11T18:18:00Z,28.4073,-96.7122,0.65,1111122 
TCOON,ioos:station:TCOON:031:1,2017-05-11T19:18:00Z,28.4073,-96.7122,0.658,1111122 
TCOON,ioos:station:TCOON:031:1,2017-05-11T20:18:00Z,28.4073,-96.7122,0.671,1111122 
TCOON,ioos:station:TCOON:031:1,2017-05-11T21:18:00Z,28.4073,-96.7122,0.689,1111122 
TCOON,ioos:station:TCOON:031:1,2017-05-11T22:18:00Z,28.4073,-96.7122,0.66,1111122 
TCOON,ioos:station:TCOON:031:1,2017-05-11T23:18:00Z,28.4073,-96.7122,0.661,1111122 
TCOON,ioos:station:TCOON:031:1,2017-05-12T00:18:00Z,28.4073,-96.7122,0.632,1111122 
TCOON,ioos:station:TCOON:031:1,2017-05-12T01:18:00Z,28.4073,-96.7122,0.663,1111122 
TCOON,ioos:station:TCOON:031:1,2017-05-12T02:18:00Z,28.4073,-96.7122,0.649,1111122 
TCOON,ioos:station:TCOON:031:1,2017-05-12T03:18:00Z,28.4073,-96.7122,0.629,1111122 
TCOON,ioos:station:TCOON:031:1,2017-05-12T04:18:00Z,28.4073,-96.7122,0.609,1111122 
TCOON,ioos:station:TCOON:031:1,2017-05-12T05:18:00Z,28.4073,-96.7122,0.595,1111122 
TCOON,ioos:station:TCOON:031:1,2017-05-12T06:18:00Z,28.4073,-96.7122,0.601,1111122 
TCOON,ioos:station:TCOON:031:1,2017-05-12T07:18:00Z,28.4073,-96.7122,0.596,1111122 
TCOON,ioos:station:TCOON:031:1,2017-05-12T08:18:00Z,28.4073,-96.7122,0.563,1111122 
TCOON,ioos:station:TCOON:031:1,2017-05-12T09:18:00Z,28.4073,-96.7122,0.555,1111122 
TCOON,ioos:station:TCOON:031:1,2017-05-12T10:18:00Z,28.4073,-96.7122,0.545,1111122 
TCOON,ioos:station:TCOON:031:1,2017-05-12T11:18:00Z,28.4073,-96.7122,0.536,1111122 
TCOON,ioos:station:TCOON:031:1,2017-05-12T12:18:00Z,28.4073,-96.7122,0.516,1111122 
TCOON,ioos:station:TCOON:031:1,2017-05-12T13:18:00Z,28.4073,-96.7122,0.5,1111122 
TCOON,ioos:station:TCOON:031:1,2017-05-12T14:24:00Z,28.4073,-96.7122,0.46,1111122 
TCOON,ioos:station:TCOON:031:1,2017-05-12T15:24:00Z,28.4073,-96.7122,0.396,1111122 
TCOON,ioos:station:TCOON:031:1,2017-05-12T16:18:00Z,28.4073,-96.7122,0.415,1111122 
TCOON,ioos:station:TCOON:031:1,2017-05-12T17:18:00Z,28.4073,-96.7122,0.464,1111122 
TCOON,ioos:station:TCOON:031:1,2017-05-12T18:18:00Z,28.4073,-96.7122,0.499,1111122 
TCOON,ioos:station:TCOON:031:1,2017-05-12T19:30:00Z,28.4073,-96.7122,0.495,1111122 
TCOON,ioos:station:TCOON:031:1,2017-05-12T20:18:00Z,28.4073,-96.7122,0.495,1111122 
TCOON,ioos:station:TCOON:031:1,2017-05-12T21:18:00Z,28.4073,-96.7122,0.501,1111122 
TCOON,ioos:station:TCOON:031:1,2017-05-12T22:18:00Z,28.4073,-96.7122,0.533,1111122 
TCOON,ioos:station:TCOON:031:1,2017-05-14T14:18:00Z,28.4073,-96.7122,0.413,1111122 
TCOON,ioos:station:TCOON:031:1,2017-05-14T15:18:00Z,28.4073,-96.7122,0.427,1111122 